NK0Z-13 Weather Reports


time (UTC)temp
C
wind
direction
speed
KPH
gust
KPH
rain 1hr
cm
rain 24hr
cm
rain mn
cm
humidity
%
barometer
mb
20260906192948 36 188 4.8 14.5 0.00 0.00 0.00 36 1015.8
20260906191948 38 136 8.0 17.7 0.00 0.00 0.00 35 1015.9
20260906190947 36 188 8.0 12.9 0.00 0.00 0.00 37 1016.0
20260906185948 36 245 6.4 8.0 0.00 0.00 0.00 39 1016.1
20260906184946 36 43 6.4 9.7 0.00 0.00 0.00 39 1016.5
20260906183942 36 165 1.6 8.0 0.00 0.00 0.00 40 1016.6
20260906182940 37 39 3.2 8.0 0.00 0.00 0.00 38 1016.9
20260906181937 37 328 0.0 9.7 0.00 0.00 0.00 38 1017.1
20260906180934 35 353 3.2 12.9 0.00 0.00 0.00 40 1017.2
20260906175932 36 186 8.0 14.5 0.00 0.00 0.00 39 1017.3
20260906174931 36 359 4.8 11.3 0.00 0.00 0.00 40 1017.5
20260906173927 35 261 4.8 8.0 0.00 0.00 0.00 41 1017.8
20260906172927 35 356 6.4 12.9 0.00 0.00 0.00 41 1017.9
20260906171924 35 305 4.8 12.9 0.00 0.00 0.00 43 1018.2
20260906170920 34 9 8.0 17.7 0.00 0.00 0.00 45 1018.7
20260906165919 33 315 6.4 16.1 0.00 0.00 0.00 46 1018.8
20260906164920 33 317 6.4 20.9 0.00 0.00 0.00 45 1018.5
20260906163915 35 296 6.4 12.9 0.00 0.00 0.00 42 1018.4
20260906162914 35 261 11.3 16.1 0.00 0.00 0.00 42 1018.7
20260906161914 34 239 9.7 11.3 0.00 0.00 0.00 44 1018.9
20260906160912 34 231 8.0 12.9 0.00 0.00 0.00 44 1018.8
20260906155910 35 260 11.3 16.1 0.00 0.00 0.00 43 1018.4
20260906154907 33 269 6.4 12.9 0.00 0.00 0.00 46 1018.5
20260906153906 33 260 11.3 14.5 0.00 0.00 0.00 47 1018.3
20260906152900 32 259 12.9 19.3 0.00 0.00 0.00 47 1018.3
20260906151859 32 240 8.0 14.5 0.00 0.00 0.00 47 1018.4
20260906150857 32 209 3.2 9.7 0.00 0.00 0.00 48 1018.4
20260906145851 32 220 3.2 8.0 0.00 0.00 0.00 49 1018.2
20260906144851 31 251 6.4 8.0 0.00 0.00 0.00 50 1018.2
20260906143846 31 165 6.4 11.3 0.00 0.00 0.00 52 1018.2
20260906142844 30 164 3.2 8.0 0.00 0.00 0.00 55 1018.1
20260906141838 30 179 1.6 6.4 0.00 0.00 0.00 57 1018.4
20260906140838 30 136 3.2 8.0 0.00 0.00 0.00 57 1018.3
20260906135836 29 185 3.2 12.9 0.00 0.00 0.00 58 1018.1
20260906134832 28 117 3.2 9.7 0.00 0.00 0.00 60 1018.2
20260906133828 28 132 3.2 8.0 0.00 0.00 0.00 62 1018.1
20260906132825 27 174 3.2 6.4 0.00 0.00 0.00 65 1018.0
20260906131822 27 136 0.0 4.8 0.00 0.00 0.00 65 1017.9
20260906130819 26 149 3.2 4.8 0.00 0.00 0.00 66 1017.8
20260906125817 26 128 4.8 8.0 0.00 0.00 0.00 68 1017.6
20260906124815 25 136 3.2 4.8 0.00 0.00 0.00 70 1017.4
20260906123810 23 132 0.0 4.8 0.00 0.00 0.00 73 1017.4
20260906122805 23 111 3.2 4.8 0.00 0.00 0.00 76 1017.4
20260906121803 22 75 0.0 1.6 0.00 0.00 0.00 76 1017.0
20260906120800 22 104 1.6 3.2 0.00 0.00 0.00 76 1017.0
20260906115758 22 93 0.0 3.2 0.00 0.00 0.00 77 1016.6
20260906114758 22 93 1.6 3.2 0.00 0.00 0.00 76 1016.7
20260906113755 22 104 1.6 3.2 0.00 0.00 0.00 76 1016.6
20260906112754 23 87 1.6 3.2 0.00 0.00 0.00 75 1016.5
20260906111750 23 121 3.2 4.8 0.00 0.00 0.00 75 1016.5
20260906110751 22 89 0.0 3.2 0.00 0.00 0.00 79 1016.4
20260906105745 21 56 0.0 3.2 0.00 0.00 0.00 80 1016.1
20260906104742 21 172 0.0 1.6 0.00 0.00 0.00 79 1016.4
20260906103739 21 117 0.0 3.2 0.00 0.00 0.00 78 1016.4
20260906102735 22 96 3.2 4.8 0.00 0.00 0.00 77 1016.4
20260906101736 22 84 0.0 3.2 0.00 0.00 0.00 77 1016.7
20260906100731 22 50 0.0 1.6 0.00 0.00 0.00 78 1016.5
20260906095726 22 39 1.6 3.2 0.00 0.00 0.00 78 1016.5
20260906094726 22 55 0.0 3.2 0.00 0.00 0.00 77 1016.6
20260906093724 22 64 1.6 3.2 0.00 0.00 0.00 76 1016.7
20260906092720 23 25 0.0 1.6 0.00 0.00 0.00 75 1016.3
20260906091716 23 269 1.6 3.2 0.00 0.00 0.00 74 1016.5
20260906090714 24 199 0.0 4.8 0.00 0.00 0.00 71 1016.4
20260906085712 24 268 9.7 11.3 0.00 0.00 0.00 72 1016.4
20260906084712 25 132 4.8 4.8 0.00 0.00 0.00 68 1016.1
20260906083707 25 168 1.6 4.8 0.00 0.00 0.00 69 1016.0
20260906082704 24 107 3.2 4.8 0.00 0.00 0.00 70 1015.9
20260906081701 24 110 4.8 4.8 0.00 0.00 0.00 69 1016.1
20260906080658 25 111 3.2 4.8 0.00 0.00 0.00 68 1016.1
20260906075653 25 117 3.2 4.8 0.00 0.00 0.00 67 1016.1
20260906074649 25 122 1.6 4.8 0.00 0.00 0.00 66 1016.0
20260906073649 25 159 3.2 6.4 0.00 0.00 0.00 66 1016.1
20260906072646 25 131 1.6 3.2 0.00 0.00 0.00 66 1015.8
20260906071644 25 113 3.2 4.8 0.00 0.00 0.00 67 1015.8
20260906070640 25 111 3.2 4.8 0.00 0.00 0.00 68 1015.7
20260906065635 25 100 3.2 4.8 0.00 0.00 0.00 67 1015.8
20260906064631 25 120 4.8 6.4 0.00 0.00 0.00 65 1015.7
20260906063627 26 86 3.2 4.8 0.00 0.00 0.00 64 1015.8
20260906062625 26 137 3.2 4.8 0.00 0.00 0.00 64 1015.6
20260906061625 25 156 1.6 4.8 0.00 0.00 0.00 65 1015.7
20260906060621 26 129 3.2 4.8 0.00 0.00 0.00 64 1015.7
20260906055620 25 141 1.6 3.2 0.00 0.00 0.00 65 1015.7
20260906054616 26 131 1.6 4.8 0.00 0.00 0.00 64 1016.0
20260906053613 26 114 3.2 4.8 0.00 0.00 0.00 62 1015.7
20260906052609 26 140 1.6 6.4 0.00 0.00 0.00 63 1015.9
20260906051608 25 120 3.2 6.4 0.00 0.00 0.00 65 1015.8
20260906050604 26 115 4.8 6.4 0.00 0.00 0.00 62 1015.7
20260906045603 27 123 3.2 6.4 0.00 0.00 0.00 59 1015.7
20260906044600 27 137 3.2 4.8 0.00 0.00 0.00 61 1015.7
20260906043557 26 230 0.0 1.6 0.00 0.00 0.00 62 1015.8
20260906042557 27 111 3.2 4.8 0.00 0.00 0.00 58 1015.8
20260906041554 28 137 3.2 6.4 0.00 0.00 0.00 57 1015.4
20260906040549 28 98 0.0 8.0 0.00 0.00 0.00 57 1015.6
20260906035546 28 137 0.0 1.6 0.00 0.00 0.00 57 1015.6
20260906034542 28 132 3.2 4.8 0.00 0.00 0.00 57 1015.5
20260906033538 28 180 0.0 1.6 0.00 0.00 0.00 57 1015.6
20260906032535 28 104 1.6 6.4 0.00 0.00 0.00 56 1015.3
20260906031532 28 178 1.6 3.2 0.00 0.00 0.00 55 1015.2
20260906030526 28 111 3.2 4.8 0.00 0.00 0.00 55 1014.9
20260906025526 30 173 3.2 4.8 0.00 0.00 0.00 53 1014.8
20260906024525 30 166 0.0 4.8 0.00 0.00 0.00 52 1015.0
20260906023521 30 202 0.0 4.8 0.00 0.00 0.00 51 1014.9
20260906022517 30 151 3.2 6.4 0.00 0.00 0.00 49 1014.9
20260906021514 31 152 3.2 6.4 0.00 0.00 0.00 49 1014.7
20260906020513 31 152 6.4 8.0 0.00 0.00 0.00 48 1014.5
20260906015512 31 134 6.4 9.7 0.00 0.00 0.00 47 1014.2
20260906014507 31 143 4.8 12.9 0.00 0.00 0.00 47 1014.1
20260906013503 31 210 1.6 6.4 0.00 0.00 0.00 46 1014.2
20260906012500 32 177 1.6 6.4 0.00 0.00 0.00 46 1013.8
20260906011455 32 178 0.0 3.2 0.00 0.00 0.00 45 1014.2
20260906010451 32 181 0.0 3.2 0.00 0.00 0.00 44 1014.1
20260906005447 33 144 1.6 4.8 0.00 0.00 0.00 43 1013.8
20260906004445 33 164 0.0 4.8 0.00 0.00 0.00 43 1014.0
20260906003441 33 309 0.0 3.2 0.00 0.00 0.00 42 1014.3
20260906002436 33 176 0.0 4.8 0.00 0.00 0.00 41 1013.8
20260906001433 34 230 0.0 6.4 0.00 0.00 0.00 41 1014.0
20260906000429 35 152 4.8 8.0 0.00 0.00 0.00 40 1014.2
20260905235424 35 180 3.2 9.7 0.00 0.00 0.00 39 1014.1
20260905234420 35 217 3.2 11.3 0.00 0.00 0.00 39 1014.0
20260905233416 35 164 6.4 8.0 0.00 0.00 0.00 38 1014.0
20260905232411 35 182 6.4 9.7 0.00 0.00 0.00 38 1014.0
20260905231408 36 168 4.8 8.0 0.00 0.00 0.00 38 1014.0
20260905230408 36 154 0.0 11.3 0.00 0.00 0.00 38 1014.1
20260905225408 36 172 6.4 8.0 0.00 0.00 0.00 36 1014.0
20260905224405 36 147 6.4 9.7 0.00 0.00 0.00 38 1014.1
20260905223403 37 137 6.4 12.9 0.00 0.00 0.00 36 1013.7
20260905222402 37 178 4.8 11.3 0.00 0.00 0.00 36 1014.0
20260905221400 36 152 6.4 11.3 0.00 0.00 0.00 38 1014.1
20260905220358 37 140 14.5 19.3 0.00 0.00 0.00 37 1014.1
20260905215353 37 162 11.3 22.5 0.00 0.00 0.00 36 1013.6
20260905214350 38 204 0.0 19.3 0.00 0.00 0.00 35 1014.1
20260905213347 38 125 22.5 22.5 0.00 0.00 0.00 35 1014.1
20260905212347 37 157 6.4 14.5 0.00 0.00 0.00 35 1014.2
20260905211343 39 169 8.0 17.7 0.00 0.00 0.00 34 1014.3
20260905210339 38 204 9.7 16.1 0.00 0.00 0.00 36 1013.8
20260905205339 38 135 9.7 14.5 0.00 0.00 0.00 36 1014.3
20260905204334 38 166 9.7 20.9 0.00 0.00 0.00 37 1014.1
20260905203329 37 191 8.0 27.4 0.00 0.00 0.00 37 1014.4
20260905202325 38 158 12.9 24.1 0.00 0.00 0.00 36 1014.5
20260905201322 38 175 8.0 24.1 0.00 0.00 0.00 37 1014.7
20260905200318 37 155 11.3 29.0 0.00 0.00 0.00 38 1014.9
20260905195317 38 148 3.2 16.1 0.00 0.00 0.00 37 1014.9
20260905194312 38 223 14.5 16.1 0.00 0.00 0.00 36 1015.0